Weather History for Delta, CO

Change the Weather History Date:

Thursday, November 22, 2012

  Actual Average (KMTJ) Record (KMTJ)
Temperature  
Mean Temperature 46 °F 34 °F  
Max Temperature 64 °F 46 °F 64 °F (1998)
Min Temperature 27 °F 23 °F 12 °F (2007)
Degree Days  
Heating Degree Days 20 31  
Month to date heating degree days 570  
Since 1 July heating degree days 1161  
Cooling Degree Days 0 0  
Month to date cooling degree days 0  
Year to date cooling degree days 643  
Moisture  
Dew Point 18 °F    
Average Humidity 42    
Maximum Humidity 66    
Minimum Humidity 9    
Precipitation  
Precipitation 0.00 in 0.02 in 0.12 in (2013)
Month to date precipitation 0.62  
Year to date precipitation 10.46  
Sea Level Pressure  
Sea Level Pressure 30.26 in    
Wind  
Wind Speed 3 mph ()    
Max Wind Speed 20 mph    
Max Gust Speed 25 mph    
Visibility 10.0 miles    
Events      
T = Trace of Precipitation, MM = Missing Value Source: Averaged Metar Reports

Daily Weather History Graph

Daily Weather History Graph

Search for Another Location

Airport:

Trip Planner

Search our weather history database for the weather conditions in past years. The results will help you decide how hot, cold, wet, or windy it might be!

Date:

Astronomy

Nov. 22, 2012 Rise Set
Actual Time 7:02 AM MST 4:53 PM MST
Civil Twilight 6:33 AM MST 5:22 PM MST
Nautical Twilight 6:01 AM MST 5:55 PM MST
Astronomical Twilight 5:29 AM MST 6:27 PM MST
Moon 1:38 PM MST 1:28 AM MST
Length of Visible Light 10h 48m
Length of Day
9h 51m
Waxing Gibbous, 72% of the Moon is Illuminated
Nov 22
Waxing Gibbous
Nov 28
Full
Dec 6
Last Quarter
Dec 13
New
Dec 19
First Quarter

Hourly Weather History & Observations

Time (MST) Temp. Windchill Dew Point Humidity Pressure Visibility Wind Dir Wind Speed Gust Speed Precip Events Conditions
12:15 AM 34.3 °F - 19.2 °F 54% 30.13 in 10.0 mi Calm Calm - N/A   Clear
12:35 AM 34.9 °F - 19.6 °F 54% 30.14 in 10.0 mi Calm Calm - N/A   Clear
12:55 AM 37.2 °F - 18.5 °F 47% 30.13 in 10.0 mi Calm Calm - N/A   Clear
1:15 AM 34.5 °F 30.4 °F 18.9 °F 53% 30.14 in 10.0 mi NE 4.6 mph - N/A   Clear
1:35 AM 34.0 °F 28.8 °F 18.9 °F 54% 30.14 in 10.0 mi ENE 5.8 mph - N/A   Clear
1:55 AM 34.0 °F 29.8 °F 18.3 °F 53% 30.15 in 10.0 mi East 4.6 mph - N/A   Clear
2:15 AM 32.0 °F - 17.6 °F 55% 30.16 in 10.0 mi Calm Calm - N/A   Clear
2:35 AM 30.9 °F - 18.5 °F 60% 30.16 in 10.0 mi Calm Calm - N/A   Clear
2:55 AM 32.5 °F 29.3 °F 19.4 °F 58% 30.17 in 10.0 mi East 3.5 mph - N/A   Clear
3:15 AM 31.3 °F - 18.7 °F 60% 30.17 in 10.0 mi Calm Calm - N/A   Clear
3:35 AM 31.1 °F - 18.9 °F 61% 30.17 in 10.0 mi Calm Calm - N/A   Clear
3:55 AM 31.8 °F 27.3 °F 18.9 °F 59% 30.17 in 10.0 mi NNE 4.6 mph - N/A   Clear
4:15 AM 32.0 °F 26.4 °F 18.9 °F 58% 30.17 in 10.0 mi NE 5.8 mph - N/A   Clear
4:35 AM 31.6 °F 28.3 °F 18.1 °F 57% 30.17 in 10.0 mi East 3.5 mph - N/A   Clear
4:55 AM 29.3 °F - 17.2 °F 61% 30.18 in 10.0 mi Calm Calm - N/A   Clear
5:15 AM 29.7 °F - 18.1 °F 62% 30.19 in 10.0 mi Calm Calm - N/A   Clear
5:35 AM 30.4 °F - 18.3 °F 61% 30.19 in 10.0 mi Calm Calm - N/A   Clear
5:55 AM 29.7 °F - 18.1 °F 62% 30.20 in 10.0 mi Calm Calm - N/A   Clear
6:15 AM 28.4 °F - 17.8 °F 64% 30.21 in 10.0 mi Calm Calm - N/A   Clear
6:35 AM 28.0 °F - 18.1 °F 66% 30.22 in 10.0 mi Calm Calm - N/A   Clear
6:55 AM 30.2 °F - 18.5 °F 62% 30.22 in 10.0 mi Calm Calm - N/A   Clear
7:15 AM 27.9 °F - 17.6 °F 65% 30.24 in 10.0 mi Calm Calm - N/A   Clear
7:35 AM 28.4 °F - 18.3 °F 66% 30.24 in 10.0 mi Calm Calm - N/A   Clear
7:55 AM 32.2 °F - 19.4 °F 59% 30.25 in 10.0 mi Calm Calm - N/A   Clear
8:15 AM 32.9 °F - 18.5 °F 55% 30.26 in 10.0 mi Calm Calm - N/A   Clear
8:35 AM 30.7 °F - 18.7 °F 61% 30.27 in 10.0 mi Calm Calm - N/A   Clear
8:55 AM 32.9 °F - 19.4 °F 58% 30.28 in 10.0 mi Calm Calm - N/A   Clear
9:15 AM 36.5 °F - 20.3 °F 52% 30.28 in 10.0 mi Calm Calm - N/A   Clear
9:35 AM 39.6 °F 37.4 °F 20.8 °F 47% 30.28 in 10.0 mi East 3.5 mph - N/A   Clear
9:55 AM 41.9 °F - 20.3 °F 42% 30.29 in 10.0 mi Calm Calm - N/A   Clear
10:15 AM 43.3 °F - 19.9 °F 39% 30.28 in 10.0 mi Calm Calm - N/A   Clear
10:35 AM 45.0 °F - 19.9 °F 37% 30.29 in 10.0 mi Calm Calm - N/A   Clear
10:55 AM 46.4 °F - 19.8 °F 35% 30.28 in 10.0 mi Calm Calm - N/A   Clear
11:15 AM 48.4 °F - 20.3 °F 33% 30.28 in 10.0 mi Calm Calm - N/A   Clear
11:35 AM 50.4 °F - 20.8 °F 31% 30.27 in 10.0 mi Calm Calm - N/A   Clear
11:55 AM 52.0 °F - 21.2 °F 30% 30.26 in 10.0 mi Calm Calm - N/A   Clear
12:15 PM 53.6 °F - 21.2 °F 28% 30.26 in 10.0 mi Calm Calm - N/A   Clear
12:35 PM 55.4 °F - 21.2 °F 26% 30.25 in 10.0 mi WSW 3.5 mph - N/A   Clear
12:55 PM 56.1 °F - 20.5 °F 25% 30.24 in 10.0 mi SW 4.6 mph - N/A   Clear
1:15 PM 57.4 °F - 21.2 °F 25% 30.24 in 10.0 mi Calm Calm - N/A   Clear
1:35 PM 59.2 °F - 21.2 °F 23% 30.23 in 10.0 mi SSW 6.9 mph - N/A   Clear
1:55 PM 61.0 °F - 22.1 °F 22% 30.23 in 10.0 mi South 8.1 mph - N/A   Clear
2:15 PM 64.2 °F - 15.1 °F 15% 30.23 in 10.0 mi West 10.4 mph - N/A   Clear
2:35 PM 64.4 °F - 10.8 °F 12% 30.23 in 10.0 mi West 11.5 mph - N/A   Clear
2:55 PM 64.4 °F - 4.8 °F 9% 30.23 in 10.0 mi WNW 12.7 mph 19.6 mph N/A   Clear
3:15 PM 63.5 °F - 11.3 °F 13% 30.23 in 10.0 mi WNW 15.0 mph - N/A   Clear
3:35 PM 63.0 °F - 7.9 °F 11% 30.24 in 10.0 mi WNW 16.1 mph - N/A   Clear
3:55 PM 62.6 °F - 9.3 °F 12% 30.24 in 10.0 mi West 10.4 mph - N/A   Clear
4:15 PM 61.5 °F - 10.6 °F 14% 30.25 in 10.0 mi WNW 18.4 mph - N/A   Clear
4:35 PM 60.3 °F - 10.8 °F 14% 30.25 in 10.0 mi WNW 19.6 mph - N/A   Clear
4:55 PM 59.2 °F - 12.7 °F 16% 30.26 in 10.0 mi WNW 15.0 mph 25.3 mph N/A   Clear
5:15 PM 57.9 °F - 14.5 °F 18% 30.27 in 10.0 mi WNW 12.7 mph - N/A   Clear
5:35 PM 57.2 °F - 15.3 °F 19% 30.28 in 10.0 mi WNW 12.7 mph - N/A   Clear
5:55 PM 56.8 °F - 16.0 °F 20% 30.28 in 10.0 mi WNW 10.4 mph 16.1 mph N/A   Clear
6:15 PM 55.4 °F - 18.0 °F 23% 30.30 in 10.0 mi WNW 8.1 mph - N/A   Clear
6:55 PM 46.8 °F - 17.6 °F 31% 30.32 in 10.0 mi NE 8.1 mph - N/A   Clear
7:15 PM 45.7 °F 42.0 °F 19.8 °F 36% 30.32 in 10.0 mi NNE 6.9 mph - N/A   Clear
7:35 PM 45.3 °F 40.6 °F 19.9 °F 36% 30.33 in 10.0 mi NNE 9.2 mph - N/A   Clear
7:55 PM 44.2 °F 41.0 °F 20.7 °F 39% 30.34 in 10.0 mi NNE 5.8 mph - N/A   Clear
8:15 PM 43.0 °F - 21.4 °F 42% 30.35 in 10.0 mi Calm Calm - N/A   Clear
8:35 PM 45.1 °F - 20.7 °F 38% 30.36 in 10.0 mi Calm Calm - N/A   Clear
8:55 PM 40.5 °F 35.8 °F 20.1 °F 44% 30.37 in 10.0 mi East 6.9 mph - N/A   Clear
9:15 PM 40.1 °F 34.1 °F 20.7 °F 46% 30.38 in 10.0 mi ENE 9.2 mph - N/A   Clear
9:35 PM 39.2 °F 35.0 °F 21.0 °F 48% 30.39 in 10.0 mi ENE 5.8 mph - N/A   Clear
9:55 PM 37.4 °F 32.1 °F 19.8 °F 49% 30.39 in 10.0 mi East 6.9 mph - N/A   Clear
10:15 PM 35.6 °F 30.7 °F 20.3 °F 54% 30.40 in 10.0 mi NE 5.8 mph - N/A   Clear
10:35 PM 36.7 °F 32.0 °F 20.3 °F 52% 30.41 in 10.0 mi NE 5.8 mph - N/A   Clear
10:55 PM 39.2 °F - 20.3 °F 47% 30.41 in 10.0 mi Calm Calm - N/A   Clear
11:15 PM 37.2 °F - 20.1 °F 50% 30.42 in 10.0 mi Calm Calm - N/A   Clear
11:55 PM 34.9 °F - 19.9 °F 55% 30.44 in 10.0 mi Calm Calm - N/A   Clear